908  
ASUS46 KSEW 191010  
RWRWA  
 
WASHINGTON REGIONAL WEATHER ROUNDUP  
NATIONAL WEATHER SERVICE SEATTLE WA  
300 AM PDT FRI JUL 19 2019  
 
NOTE:"FAIR" INDICATES FEW OR NO CLOUDS BELOW 12,000 FEET WITH NO  
SIGNIFICANT WEATHER AND/OR S TO VISIBILITY
.  
 
WAZ507-509-555>559-191100-  
SEATTLE, TACOMA, EVERETT, AND VICINITY  
 
CITY SKY/WX TMP DP RH WIND PRES REMARKS
 
EVERETT CLOUDY 53 50 89 N3 30.09R  
BOEING FIELD CLOUDY 57 51 80 CALM 30.07S  
RENTON CLOUDY 57 54 89 CALM 30.07S FOG  
SEATAC AIRPORT MOCLDY 56 51 84 CALM 30.08S  
JBLM-MCCHORD MOCLDY 55 54 97 S5 30.08R  
PUYALLUP N/A 55 54 94 CALM 30.08S  
BREMERTON CLOUDY 55 52 89 CALM 30.08S  
JBLM-FT LEWIS NOT AVBL  
TACOMA NARROWS MOCLDY 57 47 69 CALM 30.08S  

 
 
WAZ001-503-506-510-514-515-191100-  
NORTH INTERIOR  
 
CITY SKY/WX TMP DP RH WIND PRES REMARKS
 
BELLINGHAM CLOUDY 58 50 75 CALM 30.05R  
FRIDAY HARBOR CLEAR 50 46 86 W5 30.07R  
EASTSOUND MOCLDY 54 52 94 S3 30.05S  
PORT ANGELES CLEAR 51 45 79 W12 30.08S  
EDIZ HOOK FAIR 55 46 73 W9 30.08R  
PORT TOWNSEND FAIR 52 46 82 CALM 30.07R  
NAS WHIDBEY MOCLDY 55 50 83 W5 30.11R  
ARLINGTON CLOUDY 55 51 86 CALM 30.09R  
BURLINGTON CLOUDY 57 52 82 CALM 30.07R  

 
 
WAZ020-022-039-040-504-511-512-191100-  
SOUTHWEST INTERIOR  
 
CITY SKY/WX TMP DP RH WIND PRES REMARKS
 
SHELTON MOCLDY 54 49 83 W5 30.06S  
OLYMPIA PTCLDY 48 46 93 S5 30.08S  
CHEHALIS FAIR 50 50 100 CALM 30.09S  
KELSO CLEAR 50 49 96 CALM 30.11R  
VANCOUVER CLEAR 57 50 77 CALM 30.09R  
SCAPPOOSE, OR CLEAR 57 49 74 CALM 30.08R  
PORTLAND, OR PTCLDY 59 50 72 NW7 30.09S  

 
 
WAZ021-516-517-191100-  
WASHINGTON COAST  
 
CITY SKY/WX TMP DP RH WIND PRES REMARKS
 
FORKS MOCLDY 49 48 97 CALM 30.11R FOG  
HOQUIAM PTCLDY 56 51 84 N8 30.10R  
ASTORIA, OR CLEAR 54 51 90 S3 30.10R  

 
 
WAZ019-023-024-040-567>569-191100-  
CASCADE MOUNTAINS AND COLUMBIA GORGE  
 
CITY SKY/WX TMP DP RH WIND PRES REMARKS
 
STAMPEDE PASS CLOUDY 42 40 92 VRB5 30.05S  
TROUTDALE, OR MOCLDY 57 50 77 W5 30.09R  
HOOD RIVER, OR SUNNY 57 46 67 CALM 30.05R  
THE DALLES, OR CLEAR 59 46 62 SW7 30.02R  

 
 
WAZ026-027-041>044-520-521-191100-  
EAST SLOPES  
 
CITY SKY/WX TMP DP RH WIND PRES REMARKS
 
OMAK PTCLDY 57 35 43 N10 29.93R  
WENATCHEE PTCLDY 57 40 52 W12 29.95S  
ELLENSBURG CLEAR 54 42 64 NW18 29.99R  
YAKIMA CLEAR 54 39 57 SW7 29.99R  
SUNNYSIDE ARPT SUNNY 51 46 81 W3 29.98  
YAKIMA TC FAIR 56 38 51 CALM 29.98R  

 
 
WAZ028-034-035-191100-  
COLUMBIA BASIN  
 
CITY SKY/WX TMP DP RH WIND PRES REMARKS
 
EPHRATA CLEAR 59 36 42 W18 29.92R  
MOSES LAKE CLEAR 57 39 51 W9 29.93S  
PASCO CLEAR 60 42 51 SW6 29.97R  
RICHLAND ARPT SUNNY 55 45 67 SW6 29.97  
HERMISTON, OR CLEAR 53 43 68 SW3 29.98R  

 
 
WAZ036>038-191100-  
NORTHEAST WASHINGTON  
 
CITY SKY/WX TMP DP RH WIND PRES REMARKS
 
SPOKANE GEIGER CLEAR 51 33 50 SW12 29.89R  
SPOKANE FELTS CLEAR 54 35 48 SW8 29.89R  
FAIRCHILD AFB CLEAR 47 33 59 S3 29.89R  
COEURDALENE,ID CLEAR 50 38 63 SW3 29.90R  
DEER PARK CLEAR 43 33 68 E3 29.88R  

 
 
WAZ029>033-191100-  
SOUTHEAST WASHINGTON  
 
CITY SKY/WX TMP DP RH WIND PRES REMARKS
 
PULLMAN CLEAR 49 37 63 SW7 29.97R  
LEWISTON, ID CLEAR 64 37 36 CALM 29.93R  
WALLA WALLA MOCLDY 59 41 51 S8 29.98R  
PENDLETON, OR CLEAR 57 41 55 SW10 29.98S  

 
 
 
CLICK HERE TO GO TO PREVIOUS BULLETINS.

The Nexlab WA Page Main Text Page